[[{"header":{"parameterUnit":"m.s-1","parameterCategory":1,"la1":30.2991,"la2":30.254,"lo1":-89.0895,"lo2":-89.0444,"dx":0.0017,"dy":0.0017,"nx":28,"ny":28,"refTime":"2022-11-12T09:00:00:Z","depth":0,"parameterNumber":2,"parameterNumberName":"U-component_of_WINDS"},"data":[0,0,0,0,0,0,0,0,0,0,0,0,0,0,0,0,0,0,0,0,0,0,0,0,0,0,0,0,0,0,0,0,0,0,0,0,0,0,0,0,0,0,0,0,0,0,0,0,0,0,0,0,0,0,0,0,0,0,3.6387,3.6389,0,3.6575,3.6577,3.6579,3.6538,3.6535,3.6531,3.6528,3.6725,3.6733,3.6741,0,0,0,0,0,0,0,0,0,0,0,0,0,3.5994,3.6001,3.6386,3.6389,3.6391,3.6575,3.6577,3.658,3.6539,3.6534,3.653,3.6526,3.6722,3.6732,3.6742,0,0,0,0,0,0,0,0,0,0,0,0,0,3.6172,3.6004,3.6386,3.6393,3.6395,3.6574,3.6577,3.6581,3.654,3.6534,3.6529,3.6524,3.6719,3.6731,3.6744,3.6929,0,0,3.6783,3.6788,0,0,0,0,0,0,0,0,3.6162,3.6186,3.6389,3.6392,3.6396,3.6528,3.6511,3.6698,3.6541,3.6485,3.6528,3.6521,3.6664,3.6681,3.6728,3.6938,3.6947,3.6784,3.6792,3.6797,3.6801,0,0,0,0,0,0,0,3.6149,3.6178,3.6461,3.6392,3.6396,3.6387,3.6407,3.6546,3.6602,3.6489,3.6487,3.651,3.6664,3.6716,3.6732,3.695,3.6784,3.6795,3.6803,3.6808,3.7322,3.7327,0,0,0,0,0,0,3.6134,3.6168,3.6455,3.6467,3.6263,3.6399,3.642,3.6491,3.66,3.6612,3.6514,3.6507,3.6696,3.6717,3.6739,3.6963,3.6797,3.6809,3.6817,3.7316,3.7323,3.7329,0,0,0,0,0,0,3.6126,3.616,3.6448,3.6317,3.6353,3.6411,3.649,3.6497,3.6548,3.6619,3.6629,3.6556,3.6693,3.6721,3.6882,3.6969,3.6815,3.6827,3.7309,3.7318,3.7326,3.7412,0,0,0,0,0,0,3.6114,3.6157,3.6227,3.6319,3.636,3.6587,3.6496,3.6505,3.657,3.6563,3.6661,3.6672,3.6691,3.6863,3.6895,3.6984,3.6837,3.7301,3.7313,3.7323,3.7402,3.7423,3.7441,0,0,0,0,0,3.6101,3.6245,3.6231,3.6266,3.6449,3.6592,3.6615,3.6633,3.6577,3.6649,3.6694,3.6669,3.6955,3.688,3.6915,3.701,3.7296,3.731,3.7323,3.7393,3.7419,3.7441,0,0,0,0,0,0,3.6164,3.6257,3.6243,3.6421,3.6499,3.6584,3.6675,3.666,3.6756,3.6746,3.6765,3.6787,3.6951,3.6997,3.6912,3.7195,3.7117,3.7138,3.7159,3.7184,3.7203,3.7189,3.6847,0,0,0,0,0,3.6199,3.6306,3.6382,3.6532,3.6571,3.6617,3.668,3.6687,3.6768,3.6801,3.6858,3.694,3.7047,3.7118,3.7222,3.7409,3.7429,3.7491,3.7511,3.7526,3.7544,3.7646,3.7674,3.7373,3.7373,3.7373,0,0,3.6272,3.6336,3.6402,3.6546,3.6607,3.6718,3.6645,3.6766,3.6849,3.682,3.6975,3.702,3.7112,3.7286,3.7366,3.7329,3.7632,3.7543,3.7556,3.7565,3.7663,3.7691,3.7717,3.7383,3.7381,3.7379,0,0,3.6461,3.652,3.6651,3.6714,3.6806,3.6835,3.6867,3.6955,3.6984,3.7139,3.712,3.7219,3.7405,3.7471,3.7529,3.7744,3.7724,3.7777,3.7879,3.7978,3.8002,3.8023,3.8099,3.8126,3.7795,3.7795,3.7795,0,3.654,3.6706,3.6721,3.6844,3.6908,3.6885,3.7019,3.7079,3.7201,3.7246,3.7203,3.7435,3.7496,3.7685,3.7737,3.7785,3.7822,3.7766,3.7997,3.8019,3.8038,3.8111,3.814,3.7801,3.78,3.7799,3.7799,0,3.6799,3.6914,3.7009,3.7126,3.7201,3.7328,3.7363,3.7438,3.7438,3.7472,3.7631,3.7703,3.782,3.7865,3.7868,3.8056,3.803,3.7992,3.7914,3.8073,3.8141,3.8169,3.7809,3.7807,3.7805,3.7804,0,0,3.7034,3.7157,3.7191,3.7244,3.7344,3.7434,3.7561,3.7674,3.7737,3.7823,3.793,3.8087,3.8052,3.8118,3.8128,3.8215,3.838,3.8167,3.8169,3.8203,3.8591,3.8618,3.865,3.8367,3.8373,3.8377,3.8583,0,3.7232,3.7454,3.7471,3.7671,3.7778,3.7758,3.7869,3.7943,3.7978,3.8075,3.8114,3.8225,3.8171,3.8211,3.8296,3.8342,3.8458,3.8327,3.8468,3.8472,3.8444,3.8686,3.8715,3.8906,3.861,3.8614,3.8618,0,3.7493,3.7584,3.7795,3.7879,3.7925,3.8024,3.8128,3.8221,3.8305,3.8324,3.8398,3.8395,3.8527,3.8444,3.8626,3.8536,3.8595,3.8626,3.8634,3.8647,3.8554,3.8705,3.8967,3.8995,3.866,3.8657,3.8654,0,3.7642,3.7818,3.7967,3.8012,3.8115,3.8185,3.8231,3.831,3.8377,3.8469,3.8512,3.8619,3.8678,3.8761,3.8788,3.8726,3.8969,3.8889,3.8989,3.8988,3.904,3.9037,3.9315,3.9079,3.9079,3.9078,3.9078,0,3.7862,3.7991,3.8035,3.8126,3.8271,3.829,3.8433,3.8475,3.8545,3.8645,3.8636,3.873,3.876,3.886,3.8882,3.9028,3.9055,3.9075,3.9079,3.9076,3.9073,3.9114,3.9101,3.9086,3.9084,3.9083,3.9081,0,3.8053,3.8088,3.8248,3.8332,3.8356,3.8459,3.8531,3.8619,3.8652,3.8779,3.881,3.8863,3.898,3.9015,3.9156,3.9171,3.9342,3.9335,3.9313,3.9313,3.9411,3.9401,3.9725,3.9768,3.9505,3.9507,3.9509,0,3.8191,3.8289,3.8383,3.8448,3.8497,3.8603,3.8671,3.8693,3.8764,3.8867,3.8943,3.9058,3.9151,3.9339,3.9391,3.9499,3.9494,3.96,3.951,3.9503,3.9495,3.9488,3.9498,3.9616,3.9619,3.9621,3.9623,0,3.8431,3.8442,3.8539,3.8643,3.8723,3.8806,3.8886,3.8941,3.8975,3.9055,3.9174,3.9246,3.9389,3.9504,3.9613,3.9662,3.9649,3.9651,3.968,3.9677,3.966,3.967,3.9359,3.9644,3.9642,3.964,3.9639,3.9638,3.8599,3.8686,3.8765,3.8873,3.8935,3.901,3.9096,3.914,3.9239,3.9356,3.9364,3.9492,3.9573,3.9719,3.9773,3.9874,3.9844,3.9886,3.9896,3.9906,3.9913,3.9644,3.9895,3.9894,3.9894,3.9893,3.9893,0,3.8838,3.8888,3.8987,3.9098,3.9183,3.9162,3.9249,3.9322,3.9435,3.9511,3.9603,3.9739,3.985,3.991,4.002,4.009,4.0087,4.0118,4.0113,4.0124,3.9935,3.9899,4.0119,4.0119,4.0119,4.0119,4.0119,4.0119,3.8972,3.9117,3.9139,3.9315,3.9364,3.9488,3.9539,3.9608,3.9669,3.9821,3.9912,3.995,4.002,4.0136,4.0237,4.0252,4.0293,4.0328,4.0339,4.0161,4.0138,4.0116,4.0082,4.0337,4.0337,4.052,4.0522,4.0523]},{"header":{"parameterUnit":"m.s-1","parameterCategory":1,"la1":30.2991,"la2":30.254,"lo1":-89.0895,"lo2":-89.0444,"dx":0.0017,"dy":0.0017,"nx":28,"ny":28,"refTime":"2022-11-12T09:00:00:Z","depth":0,"parameterNumber":3,"parameterNumberName":"V-component_of_WINDS"},"data":[0,0,0,0,0,0,0,0,0,0,0,0,0,0,0,0,0,0,0,0,0,0,0,0,0,0,0,0,0,0,0,0,0,0,0,0,0,0,0,0,0,0,0,0,0,0,0,0,0,0,0,0,0,0,0,0,0,0,0.1683,0.1684,0,0.1753,0.1754,0.1755,0.1731,0.173,0.1728,0.1727,0.1803,0.1806,0.181,0,0,0,0,0,0,0,0,0,0,0,0,0,0.1533,0.1536,0.1683,0.1684,0.1685,0.1753,0.1754,0.1755,0.1731,0.173,0.1728,0.1726,0.1802,0.1806,0.181,0,0,0,0,0,0,0,0,0,0,0,0,0,0.16,0.1537,0.1683,0.1681,0.1682,0.1753,0.1754,0.1756,0.1732,0.1729,0.1727,0.1725,0.18,0.1805,0.181,0.1889,0,0,0.1826,0.1829,0,0,0,0,0,0,0,0,0.1596,0.1606,0.1681,0.1682,0.1682,0.1731,0.1729,0.18,0.1732,0.1713,0.1727,0.1724,0.1781,0.1788,0.1806,0.1893,0.1896,0.1827,0.183,0.1832,0.1834,0,0,0,0,0,0,0,0.1592,0.1603,0.1711,0.1682,0.1683,0.1678,0.1685,0.1743,0.1759,0.1715,0.1713,0.1721,0.1781,0.1801,0.1808,0.1897,0.1827,0.1831,0.1835,0.1837,0.2052,0.2055,0,0,0,0,0,0,0.1586,0.1599,0.1709,0.1713,0.1633,0.1683,0.1691,0.1718,0.1759,0.1763,0.1723,0.172,0.1793,0.1802,0.181,0.1906,0.1832,0.1837,0.184,0.205,0.2053,0.2056,0,0,0,0,0,0,0.1583,0.1596,0.1706,0.1656,0.1669,0.1688,0.1719,0.172,0.174,0.1765,0.1768,0.174,0.1792,0.1803,0.1869,0.1908,0.1839,0.1844,0.2046,0.2051,0.2054,0.2097,0,0,0,0,0,0,0.1579,0.1595,0.1624,0.1656,0.1672,0.1763,0.1721,0.1724,0.1749,0.1745,0.1782,0.1786,0.1791,0.1862,0.1875,0.1914,0.1848,0.2043,0.2048,0.2053,0.2092,0.2101,0.211,0,0,0,0,0,0.1573,0.1635,0.1626,0.1639,0.1709,0.1765,0.1775,0.1778,0.1752,0.1782,0.1798,0.1785,0.1901,0.1869,0.1883,0.1924,0.2041,0.2047,0.2053,0.2088,0.21,0.2109,0,0,0,0,0,0,0.1608,0.1639,0.163,0.1703,0.1731,0.1761,0.18,0.179,0.1828,0.1823,0.1826,0.1835,0.1903,0.192,0.1884,0.2003,0.1967,0.1976,0.1989,0.2001,0.2009,0.2005,0.1853,0,0,0,0,0,0.1624,0.1666,0.1691,0.1753,0.1768,0.1781,0.1806,0.1805,0.1836,0.1849,0.1869,0.1901,0.1944,0.1973,0.2015,0.2094,0.2102,0.2129,0.2138,0.2145,0.2153,0.2197,0.221,0.2075,0.2075,0.2075,0,0,0.1658,0.168,0.1706,0.176,0.1783,0.1828,0.1792,0.1841,0.1874,0.1857,0.1921,0.1937,0.1972,0.2045,0.2078,0.2062,0.2192,0.2153,0.2158,0.2163,0.2204,0.2217,0.2229,0.2079,0.2078,0.2077,0,0,0.1743,0.1763,0.1817,0.1839,0.1873,0.1881,0.1894,0.1926,0.1935,0.1999,0.1987,0.2027,0.2102,0.2128,0.2151,0.2244,0.2234,0.2258,0.2305,0.2347,0.2358,0.2368,0.2402,0.2414,0.2266,0.2266,0.2266,0,0.1781,0.1847,0.1846,0.1896,0.1921,0.1905,0.196,0.1983,0.2029,0.2047,0.2027,0.212,0.2143,0.2222,0.2245,0.2263,0.2279,0.2254,0.2356,0.2366,0.2375,0.2408,0.242,0.2268,0.2268,0.2268,0.2268,0,0.1893,0.1938,0.1978,0.2021,0.205,0.2103,0.2112,0.2141,0.2138,0.2149,0.2214,0.2241,0.2287,0.2306,0.2304,0.2385,0.2373,0.2355,0.232,0.239,0.2421,0.2434,0.2272,0.2271,0.2271,0.227,0,0,0.2003,0.2044,0.2059,0.2078,0.2114,0.215,0.2202,0.2246,0.2272,0.2304,0.2349,0.2412,0.2394,0.242,0.2421,0.2458,0.2532,0.2435,0.2436,0.2453,0.2624,0.2639,0.2653,0.2524,0.2526,0.2528,0.2621,0,0.2091,0.2181,0.2182,0.2265,0.2308,0.2293,0.2339,0.2366,0.2377,0.2416,0.2429,0.2474,0.2448,0.2463,0.2499,0.2515,0.2566,0.2508,0.2567,0.257,0.256,0.2669,0.2685,0.2772,0.2633,0.2635,0.2637,0,0.2206,0.2241,0.2328,0.2357,0.2375,0.2416,0.2456,0.2493,0.2524,0.253,0.2559,0.2553,0.2608,0.2569,0.2645,0.2605,0.263,0.2641,0.2644,0.2651,0.2609,0.2681,0.2799,0.2813,0.2656,0.2654,0.2653,0,0.2279,0.2347,0.2408,0.2425,0.2461,0.249,0.2506,0.2534,0.2561,0.2597,0.2614,0.2656,0.268,0.2713,0.272,0.2691,0.2796,0.2758,0.2803,0.2803,0.2828,0.2826,0.2953,0.2841,0.2841,0.284,0.284,0,0.2379,0.2433,0.2441,0.2479,0.254,0.2541,0.2601,0.2615,0.2641,0.2682,0.2672,0.2711,0.2717,0.2758,0.2763,0.2826,0.2836,0.2843,0.2844,0.2845,0.2844,0.2862,0.2857,0.2844,0.2843,0.2842,0.2842,0,0.2471,0.2479,0.2544,0.2572,0.258,0.2624,0.2648,0.2685,0.2694,0.2746,0.2759,0.2775,0.2822,0.2832,0.2888,0.2892,0.2967,0.2961,0.2956,0.2956,0.3001,0.2997,0.3145,0.3165,0.3039,0.304,0.3041,0,0.2535,0.2576,0.2607,0.2633,0.2651,0.2693,0.2719,0.2722,0.275,0.2788,0.2821,0.2867,0.2904,0.2981,0.2998,0.3042,0.3038,0.3087,0.3045,0.3044,0.304,0.3038,0.3043,0.3095,0.3097,0.3098,0.3099,0,0.2647,0.2649,0.2686,0.2726,0.2757,0.2789,0.2819,0.2841,0.2848,0.288,0.2928,0.2956,0.3013,0.306,0.3103,0.3121,0.3112,0.3112,0.3125,0.3127,0.3122,0.3126,0.2979,0.3109,0.3108,0.3107,0.3106,0.3106,0.2728,0.2764,0.2792,0.2834,0.2857,0.2885,0.292,0.2934,0.2973,0.3019,0.3018,0.3071,0.3101,0.3158,0.3178,0.322,0.3205,0.3224,0.3229,0.3234,0.3239,0.3114,0.3228,0.3228,0.3228,0.3227,0.3227,0,0.2841,0.2857,0.2897,0.2938,0.2972,0.2958,0.299,0.302,0.3066,0.3094,0.313,0.3185,0.323,0.3251,0.3295,0.3325,0.3322,0.3337,0.3335,0.334,0.3249,0.3234,0.3338,0.3338,0.3338,0.3338,0.3338,0.3338,0.2904,0.2964,0.2969,0.3041,0.3057,0.3108,0.3127,0.3154,0.3176,0.3238,0.3274,0.3287,0.3312,0.3358,0.3399,0.3404,0.3421,0.3439,0.3442,0.3357,0.3346,0.3335,0.3321,0.3442,0.3442,0.3529,0.353,0.353]}]]